Regional Weather Roundup
Issued by NWS Sterling, VA

Home | Current Version | Previous Version | Text Only | Print | Product List | Glossary Off
Versions: 1 2 3 4 5 6 7 8 9 10 11 12 13 14 15 16 17 18 19 20 21 22 23 24 25 26 27

000
ASUS41 KLWX 201911
RWRLWX

REGIONAL WEATHER ROUNDUP
NATIONAL WEATHER SERVICE BALTIMORE MD/WASHINGTON DC
300 PM EDT THU JUL 20 2017

Note: "FAIR" indicates few or no clouds below 12,000 feet
with no significant weather and/or obstructions to visibility.
 TC=TEMPERATURE CELSIUS

 * =Non NWS site. Station does not report precipitation (e.g. rain,
    snow, etc.), thunder, or fog.

DCZ001-MDZ009-015-VAZ040>042-051-053>054-202000-
WASHINGTON METRO

CITY           SKY/WX    TMP DP  RH WIND       PRES   REMARKS
WASHINGTON NAT PTSUNNY   96  68  39 VRB7      29.96F HX 101
DULLES         CLOUDY    91  70  49 W6        29.97F HX  96
ANDREWS AFB    CLOUDY    94  68  41 W9        29.96F HX  98
FT BELVOIR     MOSUNNY   95  72  47 S7        29.96F HX 103
QUANTICO       CLOUDY    93  76  57 S7        29.97F HX 105
COLLEGE PARK*  MOSUNNY   92  70  47 W3        29.95F HX  98
LEESBURG*      MOSUNNY   95  72  46 W3        29.98F HX 103
MANASSAS*      CLOUDY    95  71  45 W9        29.97F HX 102
GAITHERSBURG*  CLOUDY    94  72  48 SW7       29.99F HX 102

$$

MDZ006>007-011-014-202000-
BALTIMORE METRO

CITY           SKY/WX    TMP DP  RH WIND       PRES   REMARKS
BWI AIRPORT    CLOUDY    96  68  39 W12       29.94F HX 101
MD SCIENCE CTR   N/A     97  68  38 MISG      29.94F HX 102
MARTIN STATE   PTSUNNY   93  79  62 SE8       29.95F HX 110
ANNAPOLIS      CLOUDY    87  78  74 S9        29.95F HX 100

$$

MDZ012-015-019>023-202000-
MARYLAND EASTERN SHORE

CITY           SKY/WX    TMP DP  RH WIND       PRES   REMARKS
OCEAN CITY     MOSUNNY   86  77  74 S8        29.97F HX  97
SALISBURY      SUNNY     93  72  49 SW13      29.98S HX 100
BAY BRIDGE AP* MOSUNNY   95  73  49 S9        29.95F HX 105
CAMBRIDGE*     SUNNY     93  72  49 W8        29.96F HX 100

$$

MDZ017>025-202000-
SOUTHERN MARYLAND

CITY           SKY/WX    TMP DP  RH WIND       PRES   REMARKS
PATUXENT RIVER PTSUNNY   93  72  50 SW8       29.96F HX 101
ST INIGOES     CLOUDY    93  75  55 SW5       29.96F HX 104
LEONARDTOWN*   SUNNY    N/A N/A N/A SW8       29.98

$$

MDZ003>005-202000-
NORTH CENTRAL MARYLAND

CITY           SKY/WX    TMP DP  RH WIND       PRES   REMARKS
FREDERICK*     MOSUNNY   93  68  43 W3        29.99F HX  97
HAGERSTOWN APT CLOUDY    93  70  46 W10       29.98F HX  99
WESTMINSTER*   MOSUNNY   91  70  49 SW6       29.99F HX  97

$$

MDZ501>502-202000-
WESTERN MARYLAND

CITY           SKY/WX    TMP DP  RH WIND       PRES   REMARKS
OAKLAND*       MOSUNNY   77  64  65 W9G16     30.12F
CUMBERLAND*    MOSUNNY   93  63  36 W8G17     30.03F HX  94

$$

VAZ025>031-202000-
SHENANDOAH VALLEY

CITY           SKY/WX    TMP DP  RH WIND       PRES   REMARKS
WINCHESTER*    CLOUDY    90  66  45 NW5       29.98F HX  92
FRONT ROYAL*   CLOUDY    91  68  46 S6        29.98F HX  95
LURAY*         MOSUNNY   91  66  43 S7        30.01F HX  94
NEW MARKET*    PTSUNNY   93  64  37 S5        29.99F HX  94
STAUNTON*      MOSUNNY   93  60  33 SE5       30.05F HX  92
WAYNESBORO*    CLOUDY    91  57  31 SW5       30.06F HX  90

$$

WVZ021-048>050-054>055-202000-
EASTERN WEST VIRGINIA PANHANDLE

CITY           SKY/WX    TMP DP  RH WIND       PRES   REMARKS
MARTINSBURG    PTSUNNY   94  67  41 W9        29.97F HX  97
PETERSBURG*    CLOUDY    94  67  41 W8G18     30.02F HX  97

$$

VAZ036>039-050-202000-
CENTRAL FOOTHILLS

CITY           SKY/WX    TMP DP  RH WIND       PRES   REMARKS
CHARLOTTESVILL SUNNY     97  62  31 VRB3      29.99F HX  98
CULPEPER*      MOSUNNY   95  70  43 W6        29.98F HX 101
ORANGE*        SUNNY     93  66  40 W6        29.98F HX  96
GORDONSVILLE*  MOSUNNY   96  65  36 SW8       29.98F HX  98
WARRENTON*     CLOUDY    96  63  33 NW6       29.98F HX  97

$$

VAZ055>057-202000-
NORTH AND CENTRAL PIEDMONT

CITY           SKY/WX    TMP DP  RH WIND       PRES   REMARKS
FREDERICKSBRG* MOSUNNY   96  69  41 W6        29.96F HX 101
STAFFORD*      CLOUDY    95  65  36 W5        30.01F HX  97

$$

NCZ024-NYZ072-PAZ021-071-VAZ022-071-202000-
OTHER REGIONAL OBSERVATIONS

CITY           SKY/WX    TMP DP  RH WIND       PRES   REMARKS
NEW YORK CITY  MOSUNNY   92  70  48 W8        29.92F HX  97
PHILADELPHIA   CLOUDY    94  68  42 SW14      29.93F HX  98
PITTSBURGH     PTSUNNY   87  69  54 W9        30.01F HX  91
ROANOKE        PTSUNNY   95  61  32 NW9       30.07F HX  95
RICHMOND       CLOUDY    96  67  38 S10G18    29.98F HX 100
RALEIGH        CLOUDY    95  63  34 SW5       30.03F HX  96

$$

ANZ530>537-202000-
MARINE OBSERVATIONS

STATION/POSITION TIME  TEMP    WIND        PRES
                       AIR SEA DIR/SP/G
                 (UTC) (F)     (DEG/KT/KT) (MB)
THOMAS PT LIGHT  1900   86 83  180/  9/  9   N/A
BALT KEY BRIDGE  1842   92     260/  7/  9 1013.8F
COVE POINT       1842   86     170/ 10/ 10 1015.5F
LEWISETTA        1842   87 85  100/  8/  9 1014.9F
SOLOMONS ISLAND  1842   94 84  260/  5/ 10   N/A
PINEY POINT      1836          150/  6/  7   N/A

$$





USA.gov is the U.S. government's official web portal to all federal, state and local government web resources and services.